Location: Unspecified
(43.4680°N, 87.1740°E)
Time: 20:29:17
(UTC+00:00)

USA 281 - Pass Details

Date: 17 April 2021
Orbit: 1078 x 1081 km, 106.0° (Epoch: 07 May)

Event Time Altitude Azimuth Distance (km) Brightness Sun altitude
Exits shadow 19:03:24 44° 308° (NW) 1,466 3.9 -34.5°
Drops below altitude 10° 19:07:52 10° 330° (NNW) 2,927 5.9 -34.2°
Sets 19:10:26 0° 334° (NNW) 3,887 6.7 -34.1°
